Date,TemperatureHighF,TemperatureAvgF,TemperatureLowF,DewpointHighF,DewpointAvgF,DewpointLowF,HumidityHigh,HumidityAvg,HumidityLow,PressureMaxIn,PressureMinIn,WindSpeedMaxMPH,WindSpeedAvgMPH,GustSpeedMaxMPH,PrecipitationSumIn
2013-1-1,36.2,30.9,27.0,35.1,29.7,25.7,96,95,94,30.06,29.92,3,0,3,0.00
2013-1-2,41.4,35.0,27.5,31.9,28.5,25.2,96,79,57,29.92,29.75,13,2,13,0.01
2013-1-3,42.1,36.5,29.5,33.4,26.6,22.7,89,68,53,29.75,29.65,9,1,9,0.15
2013-1-4,48.2,41.2,36.5,46.4,39.4,33.6,95,93,89,29.87,29.72,4,1,4,0.01
2013-1-5,43.4,40.7,38.3,39.7,37.6,36.2,95,89,83,29.77,29.66,7,1,7,0.12
2013-1-6,45.7,41.0,38.9,43.8,39.2,36.7,95,94,91,29.75,29.56,6,1,6,0.34
2013-1-7,48.1,44.0,39.6,47.3,42.9,37.8,97,96,94,29.73,29.39,10,1,10,0.95
2013-1-8,49.3,44.4,40.3,48.5,43.6,39.2,97,97,96,29.73,29.30,8,2,8,0.69
2013-1-9,49.0,39.1,33.5,48.2,38.0,32.1,97,96,94,29.52,29.23,6,1,14,1.54
2013-1-10,36.5,32.9,28.4,35.5,31.7,27.2,96,95,95,29.67,29.50,3,0,3,0.18
2013-1-11,33.7,29.7,25.0,32.3,28.5,23.3,97,95,93,29.89,29.66,3,0,3,0.03
2013-1-12,34.2,26.0,22.0,32.6,24.4,20.2,95,94,92,30.01,29.88,2,0,2,0.01
2013-1-13,38.2,26.0,19.3,35.9,24.2,17.5,95,93,90,30.06,29.99,2,0,2,0.01
2013-1-14,37.8,31.9,29.2,36.5,30.6,27.6,96,95,94,30.12,30.03,2,0,2,0.01
2013-1-15,38.9,33.0,27.2,37.6,31.6,25.5,96,95,93,30.26,30.12,5,0,5,0.01
2013-1-16,36.4,28.6,23.8,35.3,27.2,22.2,96,95,94,30.24,30.07,2,0,2,0.02
2013-1-17,36.4,29.5,26.1,35.1,28.3,24.8,96,95,94,30.09,29.85,3,0,3,0.00
2013-1-18,32.0,28.2,23.2,31.1,27.1,22.0,96,96,94,29.91,29.82,0,0,0,0.01
2013-1-19,32.8,29.5,25.9,31.7,28.6,24.8,97,96,96,29.96,29.89,0,0,0,0.00
2013-1-20,33.5,29.9,27.0,32.7,29.1,26.0,97,97,96,29.96,29.83,2,0,2,0.00
2013-1-21,32.0,28.9,25.0,31.3,28.0,24.0,97,96,96,29.84,29.70,0,0,0,0.00
2013-1-22,35.8,29.2,22.0,34.8,28.1,20.7,97,96,95,29.72,29.46,2,0,2,0.00
2013-1-23,39.4,36.2,32.8,38.4,35.2,31.7,97,96,96,29.70,29.40,7,0,7,0.49
2013-1-24,43.6,38.8,35.5,42.8,37.9,34.7,97,97,96,29.78,29.61,6,0,6,0.22
2013-1-25,48.8,41.9,34.7,48.0,41.0,33.4,98,96,95,29.62,29.49,4,1,5,0.05
2013-1-26,40.7,38.3,35.3,39.6,37.3,34.2,97,96,96,29.60,29.44,4,0,4,1.16
2013-1-27,41.9,38.9,36.9,41.0,37.9,36.1,97,96,96,29.62,29.55,4,0,4,0.57
2013-1-28,39.2,38.5,38.2,38.2,37.6,37.1,97,97,96,29.65,29.59,2,0,2,0.31
2013-1-29,44.3,41.6,38.9,43.5,40.6,37.8,97,96,96,29.90,29.64,6,0,6,1.43
2013-1-30,49.7,45.1,42.3,49.0,44.4,41.3,98,97,97,29.94,29.89,3,0,3,0.29
2013-1-31,49.3,45.6,44.5,48.8,44.8,43.7,98,97,96,29.95,29.86,5,0,5,0.15
2013-2-1,50.8,43.7,34.9,49.4,42.5,33.5,97,96,93,29.97,29.89,3,0,3,0.02
2013-2-2,41.6,36.2,31.3,40.3,35.0,30.1,97,96,94,29.96,29.82,4,0,4,0.00
2013-2-3,47.9,41.9,35.5,47.1,40.9,34.4,97,96,95,29.87,29.77,4,0,4,0.14
2013-2-4,49.1,44.5,42.1,47.5,43.3,41.3,97,96,91,29.78,29.44,5,0,5,0.00
2013-2-5,49.7,44.5,42.3,46.6,42.9,41.0,97,94,85,29.50,29.40,12,2,12,0.16
2013-2-6,47.5,44.0,41.8,42.9,41.3,39.9,94,90,82,29.61,29.36,9,2,9,0.07
2013-2-7,47.2,40.7,30.6,42.9,37.8,28.4,96,89,77,29.75,29.37,7,1,7,0.22
2013-2-8,43.4,35.2,27.5,39.6,33.1,26.0,95,92,86,29.87,29.75,3,0,3,0.00
2013-2-9,43.0,39.6,37.6,41.4,38.0,35.6,95,94,92,29.91,29.82,2,0,2,0.09
2013-2-10,48.6,38.2,31.7,45.9,36.5,30.4,96,94,88,29.94,29.88,3,0,3,0.00
2013-2-11,44.1,40.6,37.8,42.3,39.0,36.2,96,94,93,29.92,29.88,4,0,4,0.07
2013-2-12,47.9,44.2,39.4,46.4,42.8,37.8,96,95,92,29.97,29.84,8,1,8,0.01
2013-2-13,47.2,44.1,41.4,45.0,42.4,40.0,95,94,92,30.06,29.86,3,0,3,0.12
2013-2-14,49.0,44.5,41.2,46.5,42.8,39.4,96,94,89,30.12,30.05,4,0,4,0.09
2013-2-15,54.0,41.9,34.0,48.6,39.3,32.4,97,91,77,30.11,29.73,5,0,5,0.00
2013-2-16,45.5,40.8,33.8,44.3,39.5,32.2,96,95,93,29.77,29.69,5,0,5,1.05
2013-2-17,44.5,39.7,34.2,42.3,38.2,32.6,96,94,91,29.81,29.68,3,0,3,0.06
2013-2-18,46.1,38.0,31.5,41.4,35.6,30.1,96,91,81,29.68,29.33,5,0,5,0.01
2013-2-19,50.0,39.3,31.1,40.9,34.6,28.4,95,84,59,29.57,29.30,7,1,7,0.00
2013-2-20,45.0,37.3,30.8,40.3,34.8,28.5,94,91,83,29.60,29.56,6,0,6,0.02
2013-2-21,41.6,39.4,36.4,40.1,38.0,34.5,96,94,93,29.63,29.56,6,1,6,0.12
2013-2-22,44.6,39.9,35.3,42.4,38.4,33.4,96,95,86,29.60,29.24,15,2,15,0.43
2013-2-23,46.1,39.6,35.1,43.4,37.5,33.8,97,92,79,29.93,29.45,6,1,6,0.24
2013-2-24,46.8,41.6,36.7,41.1,38.3,34.8,94,88,78,29.93,29.52,12,2,12,0.01
2013-2-25,49.5,42.4,38.2,43.6,37.7,32.0,95,84,57,29.87,29.45,8,2,8,0.12
2013-2-26,47.9,40.7,31.9,40.5,35.3,29.1,93,81,66,29.92,29.76,7,1,7,0.03
2013-2-27,51.7,43.3,39.4,45.9,39.5,36.6,94,87,66,29.87,29.77,6,1,6,0.35
2013-2-28,50.4,44.0,40.1,49.2,42.6,38.3,96,95,93,29.87,29.75,9,1,9,0.41
2013-3-1,55.8,52.7,49.9,51.3,49.7,48.0,96,90,83,29.91,29.84,12,2,12,0.01
2013-3-2,57.2,48.2,36.9,50.4,44.1,34.7,93,86,74,29.84,29.63,10,2,10,0.40
2013-3-3,45.7,38.2,30.2,41.8,35.4,27.8,95,90,75,29.88,29.76,7,1,7,0.07
2013-3-4,53.5,37.5,27.0,42.4,31.2,25.0,95,80,47,29.87,29.57,15,1,15,0.00
2013-3-11,54.5,46.7,33.8,43.5,40.5,31.7,94,80,61,29.98,29.73,7,1,7,0.01
2013-3-12,52.9,49.7,45.7,49.1,47.1,42.8,95,91,82,29.73,29.62,10,2,10,0.58
2013-3-13,49.3,49.2,49.1,48.3,48.1,47.7,96,96,95,29.70,29.66,8,2,8,0.01
2013-3-18,46.8,40.6,34.6,36.4,33.9,30.4,85,77,66,29.81,29.79,2,0,2,0.00
2013-3-19,55.6,39.6,30.8,42.3,32.7,28.2,93,79,46,29.81,29.42,13,1,13,0.00